Time,TemperatureF,DewpointF,PressureIn,WindDirection,WindDirectionDegrees,WindSpeedMPH,WindSpeedGustMPH,Humidity,HourlyPrecipIn,Conditions,Clouds,dailyrainin,SoftwareType,DateUTC
2013-02-27 00:00:00,37.6,29.4,30.11,East,96,2.0,4.0,72,0.00,,,0.01,Wunderground v.1.12,2013-02-27 05:00:00,
2013-02-27 00:03:00,37.6,29.0,30.11,East,89,2.0,4.0,71,0.00,,,0.00,Wunderground v.1.12,2013-02-27 05:03:00,
2013-02-27 00:04:00,37.6,29.0,30.11,East,89,2.0,4.0,71,0.00,,,0.00,Wunderground v.1.12,2013-02-27 05:04:00,
2013-02-27 00:08:00,37.8,29.6,30.09,East,90,2.0,9.0,72,0.00,,,0.00,Wunderground v.1.12,2013-02-27 05:08:00,
2013-02-27 00:10:00,37.6,29.4,30.11,East,91,2.0,3.0,72,0.00,,,0.00,Wunderground v.1.12,2013-02-27 05:10:00,
2013-02-27 00:16:00,37.6,29.4,30.10,East,98,2.0,3.0,72,0.00,,,0.00,Wunderground v.1.12,2013-02-27 05:16:00,
2013-02-27 00:21:00,37.5,29.6,30.10,East,95,2.0,4.0,73,0.00,,,0.00,Wunderground v.1.12,2013-02-27 05:21:00,
2013-02-27 00:26:00,37.8,29.6,30.10,East,83,3.0,6.0,72,0.00,,,0.00,Wunderground v.1.12,2013-02-27 05:26:00,
2013-02-27 00:31:00,37.8,29.6,30.09,East,80,3.0,4.0,72,0.00,,,0.00,Wunderground v.1.12,2013-02-27 05:31:00,
2013-02-27 00:38:00,37.8,29.6,30.09,East,84,3.0,5.0,72,0.00,,,0.00,Wunderground v.1.12,2013-02-27 05:38:00,
2013-02-27 00:43:00,37.8,29.6,30.09,East,90,4.0,5.0,72,0.00,,,0.00,Wunderground v.1.12,2013-02-27 05:43:00,
2013-02-27 00:50:00,37.9,29.3,30.09,ESE,112,4.0,4.0,71,0.00,,,0.00,Wunderground v.1.12,2013-02-27 05:50:00,
2013-02-27 00:56:00,37.8,29.2,30.09,East,84,3.0,3.0,71,0.00,,,0.00,Wunderground v.1.12,2013-02-27 05:56:00,
2013-02-27 01:02:00,37.8,29.6,30.08,East,84,2.0,2.0,72,0.00,,,0.00,Wunderground v.1.12,2013-02-27 06:02:00,
2013-02-27 01:07:00,37.8,29.6,30.08,East,90,3.0,10.0,72,0.00,,,0.00,Wunderground v.1.12,2013-02-27 06:07:00,
2013-02-27 01:08:00,37.6,29.4,30.08,East,84,2.0,5.0,72,0.00,,,0.00,Wunderground v.1.12,2013-02-27 06:08:00,
2013-02-27 01:13:00,37.6,29.4,30.08,East,84,2.0,5.0,72,0.00,,,0.00,Wunderground v.1.12,2013-02-27 06:13:00,
2013-02-27 01:18:00,37.8,29.6,30.08,East,83,2.0,4.0,72,0.00,,,0.00,Wunderground v.1.12,2013-02-27 06:18:00,
2013-02-27 01:23:00,37.9,29.3,30.08,East,90,3.0,5.0,71,0.00,,,0.00,Wunderground v.1.12,2013-02-27 06:23:00,
2013-02-27 01:28:00,37.9,29.3,30.08,East,88,3.0,5.0,71,0.00,,,0.00,Wunderground v.1.12,2013-02-27 06:28:00,
2013-02-27 01:34:00,37.9,29.3,30.07,East,96,3.0,3.0,71,0.00,,,0.00,Wunderground v.1.12,2013-02-27 06:34:00,
2013-02-27 01:38:00,37.9,29.3,30.07,East,90,3.0,7.0,71,0.00,,,0.00,Wunderground v.1.12,2013-02-27 06:38:00,
2013-02-27 01:39:00,37.9,29.3,30.07,ENE,76,3.0,3.0,71,0.00,,,0.00,Wunderground v.1.12,2013-02-27 06:39:00,
2013-02-27 01:45:00,37.9,29.7,30.05,East,80,4.0,4.0,72,0.00,,,0.00,Wunderground v.1.12,2013-02-27 06:45:00,
2013-02-27 01:50:00,37.9,29.7,30.05,East,82,3.0,3.0,72,0.00,,,0.00,Wunderground v.1.12,2013-02-27 06:50:00,
2013-02-27 01:55:00,37.8,29.9,30.05,ENE,78,3.0,3.0,73,0.00,,,0.00,Wunderground v.1.12,2013-02-27 06:55:00,
2013-02-27 02:02:00,37.9,30.0,30.04,ENE,76,3.0,5.0,73,0.00,,,0.00,Wunderground v.1.12,2013-02-27 07:02:00,
2013-02-27 02:07:00,37.9,30.4,30.04,ENE,76,3.0,3.0,74,0.00,,,0.00,Wunderground v.1.12,2013-02-27 07:07:00,
2013-02-27 02:13:00,37.9,31.0,30.04,ENE,64,3.0,5.0,76,0.00,,,0.00,Wunderground v.1.12,2013-02-27 07:13:00,
2013-02-27 02:18:00,37.9,31.0,30.03,East,82,3.0,4.0,76,0.00,,,0.00,Wunderground v.1.12,2013-02-27 07:18:00,
2013-02-27 02:25:00,37.9,31.3,30.03,East,93,3.0,4.0,77,0.00,,,0.00,Wunderground v.1.12,2013-02-27 07:25:00,
2013-02-27 02:30:00,38.0,31.4,30.04,ENE,77,3.0,4.0,77,0.00,,,0.00,Wunderground v.1.12,2013-02-27 07:30:00,
2013-02-27 02:36:00,38.0,31.7,30.04,ENE,77,2.0,3.0,78,0.00,,,0.00,Wunderground v.1.12,2013-02-27 07:36:00,
2013-02-27 02:41:00,38.0,32.1,30.04,East,89,3.0,4.0,79,0.00,,,0.00,Wunderground v.1.12,2013-02-27 07:41:00,
2013-02-27 02:47:00,38.0,32.1,30.03,ESE,105,3.0,6.0,79,0.00,,,0.00,Wunderground v.1.12,2013-02-27 07:47:00,
2013-02-27 02:53:00,38.2,32.6,30.03,East,94,3.0,3.0,80,0.00,,,0.00,Wunderground v.1.12,2013-02-27 07:53:00,
2013-02-27 02:58:00,38.2,32.6,30.03,East,82,3.0,4.0,80,0.00,,,0.00,Wunderground v.1.12,2013-02-27 07:58:00,
2013-02-27 03:03:00,38.3,32.7,30.02,East,93,3.0,5.0,80,0.00,,,0.00,Wunderground v.1.12,2013-02-27 08:03:00,
2013-02-27 03:07:00,38.2,32.6,30.02,East,90,3.0,7.0,80,0.00,,,0.00,Wunderground v.1.12,2013-02-27 08:07:00,
2013-02-27 03:08:00,38.3,33.0,30.02,East,84,3.0,4.0,81,0.00,,,0.00,Wunderground v.1.12,2013-02-27 08:08:00,
2013-02-27 03:14:00,38.3,33.0,30.02,East,99,3.0,4.0,81,0.00,,,0.00,Wunderground v.1.12,2013-02-27 08:14:00,
2013-02-27 03:19:00,38.5,33.2,30.02,ESE,114,3.0,8.0,81,0.00,,,0.00,Wunderground v.1.12,2013-02-27 08:19:00,
2013-02-27 03:24:00,38.5,33.5,30.02,East,93,3.0,4.0,82,0.00,,,0.00,Wunderground v.1.12,2013-02-27 08:24:00,
2013-02-27 03:31:00,38.6,33.6,30.02,East,87,3.0,4.0,82,0.00,,,0.00,Wunderground v.1.12,2013-02-27 08:31:00,
2013-02-27 03:37:00,38.6,33.9,30.02,ENE,75,4.0,4.0,83,0.00,,,0.00,Wunderground v.1.12,2013-02-27 08:37:00,
2013-02-27 03:43:00,38.6,34.2,30.02,East,84,3.0,5.0,84,0.00,,,0.00,Wunderground v.1.12,2013-02-27 08:43:00,
2013-02-27 03:48:00,38.6,34.2,30.02,East,84,2.0,3.0,84,0.00,,,0.00,Wunderground v.1.12,2013-02-27 08:48:00,
2013-02-27 03:53:00,38.8,34.4,30.02,East,90,3.0,3.0,84,0.00,,,0.00,Wunderground v.1.12,2013-02-27 08:53:00,
2013-02-27 03:58:00,38.8,34.4,30.02,East,90,3.0,3.0,84,0.00,,,0.00,Wunderground v.1.12,2013-02-27 08:58:00,
2013-02-27 04:04:00,38.8,34.4,30.02,East,101,2.0,4.0,84,0.00,,,0.00,Wunderground v.1.12,2013-02-27 09:04:00,
2013-02-27 04:08:00,38.8,34.4,30.02,East,90,3.0,9.0,84,0.00,,,0.00,Wunderground v.1.12,2013-02-27 09:08:00,
2013-02-27 04:09:00,38.8,34.1,30.02,ENE,69,3.0,3.0,83,0.00,,,0.00,Wunderground v.1.12,2013-02-27 09:09:00,
2013-02-27 04:15:00,38.9,34.2,30.02,ENE,70,3.0,4.0,83,0.00,,,0.00,Wunderground v.1.12,2013-02-27 09:15:00,
2013-02-27 04:20:00,38.9,33.9,30.02,East,85,3.0,3.0,82,0.00,,,0.00,Wunderground v.1.12,2013-02-27 09:20:00,
2013-02-27 04:25:00,38.9,33.9,30.02,East,89,3.0,3.0,82,0.00,,,0.00,Wunderground v.1.12,2013-02-27 09:25:00,
2013-02-27 04:32:00,38.8,33.8,30.01,East,89,2.0,4.0,82,0.00,,,0.00,Wunderground v.1.12,2013-02-27 09:32:00,
2013-02-27 04:37:00,38.8,33.8,30.01,East,81,3.0,5.0,82,0.00,,,0.00,Wunderground v.1.12,2013-02-27 09:37:00,
2013-02-27 04:43:00,38.8,34.1,30.01,ENE,77,3.0,4.0,83,0.00,,,0.00,Wunderground v.1.12,2013-02-27 09:43:00,
2013-02-27 04:51:00,38.6,34.2,30.00,East,82,3.0,3.0,84,0.00,,,0.00,Wunderground v.1.12,2013-02-27 09:51:00,
2013-02-27 04:56:00,38.5,34.4,30.00,East,82,3.0,3.0,85,0.00,,,0.00,Wunderground v.1.12,2013-02-27 09:56:00,
2013-02-27 05:02:00,38.5,34.4,30.01,East,96,2.0,2.0,85,0.00,,,0.01,Wunderground v.1.12,2013-02-27 10:02:00,
2013-02-27 05:07:00,38.5,34.7,30.01,East,82,2.0,4.0,86,0.00,,,0.01,Wunderground v.1.12,2013-02-27 10:07:00,
2013-02-27 05:13:00,38.3,34.5,30.01,East,79,3.0,4.0,86,0.00,,,0.01,Wunderground v.1.12,2013-02-27 10:13:00,
2013-02-27 05:18:00,38.3,34.8,30.00,East,88,3.0,9.0,87,0.00,,,0.02,Wunderground v.1.12,2013-02-27 10:18:00,
2013-02-27 05:24:00,38.2,34.7,30.00,ENE,78,3.0,5.0,87,0.10,,,0.03,Wunderground v.1.12,2013-02-27 10:24:00,
2013-02-27 05:29:00,38.0,34.8,29.98,East,80,3.0,5.0,88,0.10,,,0.04,Wunderground v.1.12,2013-02-27 10:29:00,
2013-02-27 05:35:00,38.2,35.2,29.98,East,88,3.0,3.0,89,0.11,,,0.05,Wunderground v.1.12,2013-02-27 10:35:00,
2013-02-27 05:36:00,38.0,34.8,29.98,East,90,3.0,9.0,88,0.04,,,0.06,Wunderground v.1.12,2013-02-27 10:36:00,
2013-02-27 05:41:00,38.0,35.0,29.98,East,82,3.0,4.0,89,0.08,,,0.05,Wunderground v.1.12,2013-02-27 10:41:00,
2013-02-27 05:46:00,38.2,35.5,29.98,East,80,3.0,4.0,90,0.05,,,0.05,Wunderground v.1.12,2013-02-27 10:46:00,
2013-02-27 05:51:00,38.2,35.5,29.98,ENE,76,4.0,6.0,90,0.00,,,0.05,Wunderground v.1.12,2013-02-27 10:51:00,
2013-02-27 05:57:00,38.3,35.9,29.98,ENE,75,4.0,5.0,91,0.00,,,0.06,Wunderground v.1.12,2013-02-27 10:57:00,
2013-02-27 06:03:00,38.5,36.1,29.97,East,85,3.0,4.0,91,0.00,,,0.06,Wunderground v.1.12,2013-02-27 11:03:00,
2013-02-27 06:05:00,38.3,35.9,29.97,East,90,3.0,12.0,91,0.05,,,0.08,Wunderground v.1.12,2013-02-27 11:05:00,
2013-02-27 06:08:00,38.5,36.4,29.97,East,84,3.0,4.0,92,0.00,,,0.06,Wunderground v.1.12,2013-02-27 11:08:00,
2013-02-27 06:15:00,38.5,36.4,29.96,East,86,3.0,4.0,92,0.04,,,0.07,Wunderground v.1.12,2013-02-27 11:15:00,
2013-02-27 06:20:00,38.6,36.5,29.96,East,100,3.0,3.0,92,0.04,,,0.07,Wunderground v.1.12,2013-02-27 11:20:00,
2013-02-27 06:26:00,38.8,36.7,29.96,East,90,4.0,5.0,92,0.04,,,0.08,Wunderground v.1.12,2013-02-27 11:26:00,
2013-02-27 06:32:00,38.8,36.7,29.95,East,79,4.0,4.0,92,0.04,,,0.08,Wunderground v.1.12,2013-02-27 11:32:00,
2013-02-27 06:36:00,38.8,36.7,29.95,East,90,3.0,9.0,92,0.04,,,0.09,Wunderground v.1.12,2013-02-27 11:36:00,
2013-02-27 06:38:00,38.8,36.7,29.95,East,87,4.0,5.0,92,0.04,,,0.08,Wunderground v.1.12,2013-02-27 11:38:00,
2013-02-27 06:43:00,38.9,36.8,29.95,East,83,3.0,7.0,92,0.00,,,0.08,Wunderground v.1.12,2013-02-27 11:43:00,
2013-02-27 06:48:00,38.9,37.0,29.95,East,97,3.0,9.0,93,0.00,,,0.09,Wunderground v.1.12,2013-02-27 11:48:00,
2013-02-27 06:53:00,38.9,37.0,29.95,ENE,74,4.0,6.0,93,0.00,,,0.09,Wunderground v.1.12,2013-02-27 11:53:00,
2013-02-27 06:59:00,38.9,37.0,29.94,East,97,5.0,5.0,93,0.00,,,0.09,Wunderground v.1.12,2013-02-27 11:59:00,
2013-02-27 07:05:00,38.9,36.8,29.94,ENE,74,4.0,5.0,92,0.00,,,0.09,Wunderground v.1.12,2013-02-27 12:05:00,
2013-02-27 07:06:00,38.9,37.0,29.94,East,90,4.0,11.0,93,0.03,,,0.10,Wunderground v.1.12,2013-02-27 12:06:00,
2013-02-27 07:11:00,38.9,36.8,29.94,East,82,4.0,4.0,92,0.00,,,0.10,Wunderground v.1.12,2013-02-27 12:11:00,
2013-02-27 07:16:00,38.9,36.8,29.93,East,92,4.0,5.0,92,0.00,,,0.10,Wunderground v.1.12,2013-02-27 12:16:00,
2013-02-27 07:21:00,38.9,36.8,29.93,ENE,68,4.0,5.0,92,0.00,,,0.10,Wunderground v.1.12,2013-02-27 12:21:00,
2013-02-27 07:28:00,38.9,36.8,29.93,ENE,68,3.0,4.0,92,0.00,,,0.10,Wunderground v.1.12,2013-02-27 12:28:00,
2013-02-27 07:34:00,39.1,37.0,29.93,ENE,78,4.0,5.0,92,0.00,,,0.10,Wunderground v.1.12,2013-02-27 12:34:00,
2013-02-27 07:37:00,38.9,36.8,29.93,ENE,68,4.0,9.0,92,0.02,,,0.10,Wunderground v.1.12,2013-02-27 12:37:00,
2013-02-27 07:39:00,39.2,37.1,29.93,East,79,4.0,4.0,92,0.00,,,0.10,Wunderground v.1.12,2013-02-27 12:39:00,
2013-02-27 07:44:00,39.2,37.1,29.92,NE,44,4.0,4.0,92,0.00,,,0.10,Wunderground v.1.12,2013-02-27 12:44:00,
2013-02-27 07:49:00,39.3,37.2,29.92,East,100,4.0,7.0,92,0.00,,,0.10,Wunderground v.1.12,2013-02-27 12:49:00,
2013-02-27 07:56:00,39.5,37.4,29.92,East,85,4.0,4.0,92,0.00,,,0.10,Wunderground v.1.12,2013-02-27 12:56:00,
2013-02-27 08:01:00,39.5,37.4,29.92,East,82,4.0,6.0,92,0.00,,,0.10,Wunderground v.1.12,2013-02-27 13:01:00,
2013-02-27 08:07:00,39.6,37.5,29.92,East,83,4.0,4.0,92,0.00,,,0.10,Wunderground v.1.12,2013-02-27 13:07:00,
2013-02-27 08:12:00,39.8,37.7,29.92,East,98,4.0,10.0,92,0.00,,,0.10,Wunderground v.1.12,2013-02-27 13:12:00,
2013-02-27 08:18:00,39.8,37.4,29.91,ENE,68,5.0,5.0,91,0.00,,,0.10,Wunderground v.1.12,2013-02-27 13:18:00,
2013-02-27 08:23:00,39.8,37.4,29.91,East,84,4.0,6.0,91,0.00,,,0.10,Wunderground v.1.12,2013-02-27 13:23:00,
2013-02-27 08:28:00,39.9,37.5,29.91,ENE,77,5.0,5.0,91,0.00,,,0.10,Wunderground v.1.12,2013-02-27 13:28:00,
2013-02-27 08:33:00,39.9,37.2,29.89,East,84,5.0,7.0,90,0.00,,,0.10,Wunderground v.1.12,2013-02-27 13:33:00,
2013-02-27 08:36:00,39.9,37.2,29.89,ENE,68,4.0,10.0,90,0.00,,,0.10,Wunderground v.1.12,2013-02-27 13:36:00,
2013-02-27 08:38:00,40.1,37.1,29.89,East,91,5.0,9.0,89,0.00,,,0.10,Wunderground v.1.12,2013-02-27 13:38:00,
2013-02-27 08:44:00,40.2,37.2,29.89,ENE,76,6.0,9.0,89,0.00,,,0.10,Wunderground v.1.12,2013-02-27 13:44:00,
2013-02-27 08:49:00,40.2,36.9,29.90,ESE,117,6.0,10.0,88,0.00,,,0.10,Wunderground v.1.12,2013-02-27 13:49:00,
2013-02-27 08:54:00,40.2,36.6,29.90,ENE,71,5.0,5.0,87,0.00,,,0.10,Wunderground v.1.12,2013-02-27 13:54:00,
2013-02-27 08:59:00,40.2,36.9,29.89,East,90,5.0,5.0,88,0.00,,,0.10,Wunderground v.1.12,2013-02-27 13:59:00,
2013-02-27 09:06:00,40.3,36.7,29.89,ENE,67,5.0,6.0,87,0.00,,,0.11,Wunderground v.1.12,2013-02-27 14:06:00,
2013-02-27 09:11:00,40.3,36.7,29.89,East,90,5.0,6.0,87,0.00,,,0.11,Wunderground v.1.12,2013-02-27 14:11:00,
2013-02-27 09:16:00,40.3,37.0,29.88,East,96,5.0,7.0,88,0.00,,,0.11,Wunderground v.1.12,2013-02-27 14:16:00,
2013-02-27 09:21:00,40.3,36.7,29.88,ENE,71,6.0,6.0,87,0.00,,,0.11,Wunderground v.1.12,2013-02-27 14:21:00,
2013-02-27 09:26:00,40.3,36.7,29.88,ENE,77,6.0,7.0,87,0.00,,,0.11,Wunderground v.1.12,2013-02-27 14:26:00,
2013-02-27 09:31:00,40.5,36.9,29.88,East,83,5.0,8.0,87,0.00,,,0.11,Wunderground v.1.12,2013-02-27 14:31:00,
2013-02-27 09:37:00,40.5,36.9,29.88,ENE,72,5.0,7.0,87,0.00,,,0.11,Wunderground v.1.12,2013-02-27 14:37:00,
2013-02-27 09:43:00,40.5,36.9,29.88,East,79,5.0,8.0,87,0.00,,,0.11,Wunderground v.1.12,2013-02-27 14:43:00,
2013-02-27 09:48:00,40.5,36.9,29.86,ENE,77,5.0,6.0,87,0.00,,,0.11,Wunderground v.1.12,2013-02-27 14:48:00,
2013-02-27 09:54:00,40.5,36.9,29.86,East,83,6.0,6.0,87,0.00,,,0.11,Wunderground v.1.12,2013-02-27 14:54:00,
2013-02-27 09:59:00,40.5,36.9,29.86,East,83,6.0,7.0,87,0.00,,,0.11,Wunderground v.1.12,2013-02-27 14:59:00,
2013-02-27 10:06:00,40.6,37.0,29.86,East,80,6.0,6.0,87,0.00,,,0.11,Wunderground v.1.12,2013-02-27 15:06:00,
2013-02-27 10:11:00,40.6,37.0,29.86,East,90,6.0,7.0,87,0.00,,,0.11,Wunderground v.1.12,2013-02-27 15:11:00,
2013-02-27 10:16:00,40.8,37.2,29.85,ENE,68,5.0,6.0,87,0.00,,,0.11,Wunderground v.1.12,2013-02-27 15:16:00,
2013-02-27 10:22:00,40.9,37.0,29.85,ENE,73,5.0,10.0,86,0.00,,,0.11,Wunderground v.1.12,2013-02-27 15:22:00,
2013-02-27 10:26:00,40.8,37.2,29.85,ENE,74,6.0,10.0,87,0.00,,,0.12,Wunderground v.1.12,2013-02-27 15:26:00,
2013-02-27 10:33:00,40.8,37.2,29.83,ENE,74,7.0,12.0,87,0.00,,,0.12,Wunderground v.1.12,2013-02-27 15:33:00,
2013-02-27 10:38:00,40.8,37.2,29.83,ENE,68,6.0,16.0,87,0.01,,,0.12,Wunderground v.1.12,2013-02-27 15:38:00,
2013-02-27 10:39:00,40.8,37.2,29.83,East,86,7.0,7.0,87,0.00,,,0.12,Wunderground v.1.12,2013-02-27 15:39:00,
2013-02-27 10:45:00,40.8,37.2,29.83,ENE,73,7.0,7.0,87,0.00,,,0.12,Wunderground v.1.12,2013-02-27 15:45:00,
2013-02-27 10:50:00,40.8,37.2,29.83,East,89,7.0,9.0,87,0.00,,,0.12,Wunderground v.1.12,2013-02-27 15:50:00,
2013-02-27 10:56:00,40.8,37.2,29.83,East,90,7.0,8.0,87,0.00,,,0.12,Wunderground v.1.12,2013-02-27 15:56:00,
2013-02-27 11:01:00,40.6,37.3,29.83,East,85,6.0,7.0,88,0.00,,,0.13,Wunderground v.1.12,2013-02-27 16:01:00,
2013-02-27 11:06:00,40.5,37.5,29.83,ENE,68,5.0,7.0,89,0.00,,,0.13,Wunderground v.1.12,2013-02-27 16:06:00,
2013-02-27 11:07:00,40.6,37.0,29.83,East,90,7.0,20.0,87,0.01,,,0.16,Wunderground v.1.12,2013-02-27 16:07:00,
2013-02-27 11:12:00,40.3,37.3,29.83,East,85,6.0,6.0,89,0.08,,,0.14,Wunderground v.1.12,2013-02-27 16:12:00,
2013-02-27 11:18:00,40.3,37.6,29.81,ENE,72,6.0,7.0,90,0.08,,,0.15,Wunderground v.1.12,2013-02-27 16:18:00,
2013-02-27 11:23:00,40.2,37.8,29.81,ENE,73,6.0,9.0,91,0.08,,,0.15,Wunderground v.1.12,2013-02-27 16:23:00,
2013-02-27 11:28:00,40.2,37.8,29.81,ENE,70,6.0,6.0,91,0.05,,,0.15,Wunderground v.1.12,2013-02-27 16:28:00,
2013-02-27 11:34:00,40.2,37.8,29.81,ESE,113,7.0,12.0,91,0.04,,,0.16,Wunderground v.1.12,2013-02-27 16:34:00,
2013-02-27 11:37:00,40.2,37.8,29.81,East,90,6.0,12.0,91,0.04,,,0.17,Wunderground v.1.12,2013-02-27 16:37:00,
2013-02-27 11:39:00,40.1,37.7,29.81,ENE,69,7.0,9.0,91,0.04,,,0.16,Wunderground v.1.12,2013-02-27 16:39:00,
2013-02-27 11:45:00,40.1,37.7,29.80,East,87,7.0,12.0,91,0.04,,,0.16,Wunderground v.1.12,2013-02-27 16:45:00,
2013-02-27 11:51:00,40.1,37.7,29.80,East,86,7.0,7.0,91,0.00,,,0.16,Wunderground v.1.12,2013-02-27 16:51:00,
2013-02-27 11:56:00,40.1,37.7,29.80,East,88,6.0,10.0,91,0.00,,,0.17,Wunderground v.1.12,2013-02-27 16:56:00,
2013-02-27 12:02:00,39.9,37.8,29.79,ENE,67,7.0,7.0,92,0.00,,,0.17,Wunderground v.1.12,2013-02-27 17:02:00,
2013-02-27 12:07:00,40.1,38.0,29.79,ENE,78,8.0,10.0,92,0.06,,,0.18,Wunderground v.1.12,2013-02-27 17:07:00,
2013-02-27 12:13:00,39.9,37.8,29.79,ENE,59,7.0,11.0,92,0.06,,,0.19,Wunderground v.1.12,2013-02-27 17:13:00,
2013-02-27 12:18:00,39.8,37.7,29.79,ENE,74,7.0,7.0,92,0.10,,,0.20,Wunderground v.1.12,2013-02-27 17:18:00,
2013-02-27 12:23:00,39.6,37.5,29.79,ENE,77,8.0,8.0,92,0.10,,,0.20,Wunderground v.1.12,2013-02-27 17:23:00,
2013-02-27 12:29:00,39.5,37.4,29.79,East,80,8.0,12.0,92,0.08,,,0.21,Wunderground v.1.12,2013-02-27 17:29:00,
2013-02-27 12:34:00,39.2,36.8,29.77,East,85,9.0,9.0,91,0.09,,,0.22,Wunderground v.1.12,2013-02-27 17:34:00,
2013-02-27 12:37:00,39.5,37.4,29.77,ENE,68,8.0,20.0,92,0.05,,,0.25,Wunderground v.1.12,2013-02-27 17:37:00,
2013-02-27 12:40:00,38.9,36.5,29.77,ENE,71,9.0,13.0,91,0.09,,,0.23,Wunderground v.1.12,2013-02-27 17:40:00,
2013-02-27 12:46:00,38.6,36.2,29.77,ENE,73,8.0,9.0,91,0.10,,,0.24,Wunderground v.1.12,2013-02-27 17:46:00,
2013-02-27 12:52:00,38.5,36.1,29.77,ESE,112,7.0,22.0,91,0.09,,,0.24,Wunderground v.1.12,2013-02-27 17:52:00,
2013-02-27 12:58:00,38.3,35.9,29.77,ENE,62,9.0,11.0,91,0.05,,,0.25,Wunderground v.1.12,2013-02-27 17:58:00,
2013-02-27 13:03:00,38.2,35.8,29.75,East,101,8.0,11.0,91,0.05,,,0.25,Wunderground v.1.12,2013-02-27 18:03:00,
2013-02-27 13:07:00,38.3,35.9,29.75,ENE,68,8.0,22.0,91,0.08,,,0.27,Wunderground v.1.12,2013-02-27 18:07:00,
2013-02-27 13:09:00,37.9,35.5,29.75,ENE,59,8.0,8.0,91,0.07,,,0.26,Wunderground v.1.12,2013-02-27 18:09:00,
2013-02-27 13:14:00,37.6,35.2,29.75,East,92,8.0,8.0,91,0.07,,,0.26,Wunderground v.1.12,2013-02-27 18:14:00,
2013-02-27 13:20:00,37.6,35.5,29.75,East,89,8.0,11.0,92,0.04,,,0.26,Wunderground v.1.12,2013-02-27 18:20:00,
2013-02-27 13:26:00,37.6,35.5,29.75,ENE,67,7.0,7.0,92,0.00,,,0.27,Wunderground v.1.12,2013-02-27 18:26:00,
2013-02-27 13:31:00,37.5,35.4,29.74,East,79,6.0,10.0,92,0.00,,,0.27,Wunderground v.1.12,2013-02-27 18:31:00,
2013-02-27 13:37:00,37.3,35.2,29.74,ENE,69,8.0,10.0,92,0.07,,,0.28,Wunderground v.1.12,2013-02-27 18:37:00,
2013-02-27 13:43:00,37.2,35.1,29.74,ENE,57,8.0,8.0,92,0.06,,,0.28,Wunderground v.1.12,2013-02-27 18:43:00,
2013-02-27 13:48:00,37.2,35.1,29.73,East,81,8.0,12.0,92,0.04,,,0.28,Wunderground v.1.12,2013-02-27 18:48:00,
2013-02-27 13:53:00,37.0,35.2,29.73,ENE,78,7.0,9.0,93,0.00,,,0.29,Wunderground v.1.12,2013-02-27 18:53:00,
2013-02-27 13:59:00,37.0,35.2,29.73,ENE,73,7.0,10.0,93,0.09,,,0.30,Wunderground v.1.12,2013-02-27 18:59:00,
2013-02-27 14:04:00,37.0,35.2,29.74,ENE,77,7.0,8.0,93,0.09,,,0.30,Wunderground v.1.12,2013-02-27 19:04:00,
2013-02-27 14:08:00,37.0,35.2,29.74,ENE,68,7.0,20.0,93,0.05,,,0.35,Wunderground v.1.12,2013-02-27 19:08:00,
2013-02-27 14:09:00,36.9,35.1,29.74,ENE,73,7.0,7.0,93,0.08,,,0.31,Wunderground v.1.12,2013-02-27 19:09:00,
2013-02-27 14:15:00,36.6,34.8,29.74,East,98,8.0,16.0,93,0.14,,,0.33,Wunderground v.1.12,2013-02-27 19:15:00,
2013-02-27 14:21:00,36.5,34.7,29.74,ENE,74,8.0,9.0,93,0.13,,,0.34,Wunderground v.1.12,2013-02-27 19:21:00,
2013-02-27 14:26:00,36.3,34.5,29.74,ENE,59,8.0,8.0,93,0.10,,,0.34,Wunderground v.1.12,2013-02-27 19:26:00,
2013-02-27 14:32:00,36.2,34.4,29.73,ESE,105,7.0,9.0,93,0.08,,,0.35,Wunderground v.1.12,2013-02-27 19:32:00,
2013-02-27 14:38:00,36.0,34.2,29.73,ENE,76,7.0,11.0,93,0.08,,,0.36,Wunderground v.1.12,2013-02-27 19:38:00,
2013-02-27 14:43:00,35.9,34.3,29.73,ENE,66,7.0,9.0,94,0.08,,,0.37,Wunderground v.1.12,2013-02-27 19:43:00,
2013-02-27 14:49:00,36.0,34.4,29.73,East,80,6.0,6.0,94,0.11,,,0.38,Wunderground v.1.12,2013-02-27 19:49:00,
2013-02-27 14:55:00,36.0,33.6,29.73,East,85,6.0,6.0,91,0.08,,,0.39,Wunderground v.1.12,2013-02-27 19:55:00,
2013-02-27 15:01:00,35.9,34.3,29.73,ENE,73,5.0,7.0,94,0.14,,,0.40,Wunderground v.1.12,2013-02-27 20:01:00,
2013-02-27 15:06:00,35.9,34.3,29.73,East,93,6.0,9.0,94,0.10,,,0.41,Wunderground v.1.12,2013-02-27 20:06:00,
2013-02-27 15:11:00,35.8,34.2,29.73,East,86,6.0,7.0,94,0.12,,,0.42,Wunderground v.1.12,2013-02-27 20:11:00,
2013-02-27 15:17:00,35.6,34.0,29.72,ENE,72,6.0,8.0,94,0.10,,,0.42,Wunderground v.1.12,2013-02-27 20:17:00,
2013-02-27 15:23:00,35.6,34.3,29.72,ENE,69,6.0,9.0,95,0.12,,,0.44,Wunderground v.1.12,2013-02-27 20:23:00,
2013-02-27 15:28:00,35.6,34.3,29.72,ENE,66,6.0,12.0,95,0.09,,,0.44,Wunderground v.1.12,2013-02-27 20:28:00,
2013-02-27 15:34:00,35.8,34.5,29.72,East,88,7.0,11.0,95,0.08,,,0.45,Wunderground v.1.12,2013-02-27 20:34:00,
2013-02-27 15:38:00,35.6,34.3,29.72,ENE,68,6.0,15.0,95,0.10,,,0.48,Wunderground v.1.12,2013-02-27 20:38:00,
2013-02-27 15:39:00,35.8,34.5,29.72,ENE,71,5.0,5.0,95,0.08,,,0.46,Wunderground v.1.12,2013-02-27 20:39:00,
2013-02-27 15:44:00,35.6,34.3,29.72,ENE,71,5.0,11.0,95,0.08,,,0.47,Wunderground v.1.12,2013-02-27 20:44:00,
2013-02-27 15:51:00,35.5,34.2,29.72,East,88,7.0,8.0,95,0.08,,,0.47,Wunderground v.1.12,2013-02-27 20:51:00,
2013-02-27 15:56:00,35.3,34.0,29.72,ENE,76,6.0,6.0,95,0.09,,,0.48,Wunderground v.1.12,2013-02-27 20:56:00,
2013-02-27 16:01:00,35.2,33.9,29.71,ENE,64,6.0,8.0,95,0.06,,,0.48,Wunderground v.1.12,2013-02-27 21:01:00,
2013-02-27 16:06:00,35.2,33.9,29.71,East,81,6.0,6.0,95,0.06,,,0.49,Wunderground v.1.12,2013-02-27 21:06:00,
2013-02-27 16:07:00,35.2,33.9,29.71,ENE,68,6.0,14.0,95,0.08,,,0.52,Wunderground v.1.12,2013-02-27 21:07:00,
2013-02-27 16:13:00,35.3,34.0,29.71,ENE,72,6.0,9.0,95,0.08,,,0.50,Wunderground v.1.12,2013-02-27 21:13:00,
2013-02-27 16:18:00,35.2,33.9,29.69,NE,53,6.0,10.0,95,0.07,,,0.50,Wunderground v.1.12,2013-02-27 21:18:00,
2013-02-27 16:23:00,34.9,33.6,29.69,ENE,64,6.0,7.0,95,0.07,,,0.51,Wunderground v.1.12,2013-02-27 21:23:00,
2013-02-27 16:28:00,34.9,33.6,29.69,East,94,5.0,10.0,95,0.07,,,0.52,Wunderground v.1.12,2013-02-27 21:28:00,
2013-02-27 16:34:00,35.0,33.7,29.69,ENE,78,6.0,6.0,95,0.07,,,0.52,Wunderground v.1.12,2013-02-27 21:34:00,
2013-02-27 16:36:00,34.9,33.6,29.69,ENE,68,6.0,14.0,95,0.07,,,0.54,Wunderground v.1.12,2013-02-27 21:36:00,
2013-02-27 16:39:00,34.9,33.6,29.69,ENE,66,6.0,6.0,95,0.05,,,0.52,Wunderground v.1.12,2013-02-27 21:39:00,
2013-02-27 16:45:00,34.7,33.4,29.69,ENE,63,5.0,7.0,95,0.05,,,0.53,Wunderground v.1.12,2013-02-27 21:45:00,
2013-02-27 16:51:00,34.3,33.0,29.69,ENE,72,6.0,6.0,95,0.09,,,0.54,Wunderground v.1.12,2013-02-27 21:51:00,
2013-02-27 16:56:00,34.1,32.8,29.69,ENE,72,5.0,7.0,95,0.07,,,0.54,Wunderground v.1.12,2013-02-27 21:56:00,
2013-02-27 17:01:00,34.0,32.7,29.68,ENE,60,5.0,6.0,95,0.04,,,0.54,Wunderground v.1.12,2013-02-27 22:01:00,
2013-02-27 17:06:00,34.0,32.7,29.68,ENE,64,5.0,6.0,95,0.04,,,0.55,Wunderground v.1.12,2013-02-27 22:06:00,
2013-02-27 17:07:00,34.0,32.7,29.68,ENE,68,5.0,13.0,95,0.06,,,0.56,Wunderground v.1.12,2013-02-27 22:07:00,
2013-02-27 17:13:00,34.0,32.7,29.68,ENE,68,5.0,5.0,95,0.04,,,0.55,Wunderground v.1.12,2013-02-27 22:13:00,
2013-02-27 17:18:00,34.1,32.8,29.67,ENE,74,5.0,10.0,95,0.05,,,0.56,Wunderground v.1.12,2013-02-27 22:18:00,
2013-02-27 17:23:00,34.1,33.1,29.67,ENE,66,6.0,10.0,96,0.05,,,0.56,Wunderground v.1.12,2013-02-27 22:23:00,
2013-02-27 17:29:00,34.1,32.8,29.67,ENE,74,6.0,6.0,95,0.04,,,0.56,Wunderground v.1.12,2013-02-27 22:29:00,
2013-02-27 17:34:00,34.0,32.7,29.66,NE,56,5.0,6.0,95,0.04,,,0.57,Wunderground v.1.12,2013-02-27 22:34:00,
2013-02-27 17:36:00,34.1,32.8,29.66,ENE,68,5.0,13.0,95,0.04,,,0.58,Wunderground v.1.12,2013-02-27 22:36:00,
2013-02-27 17:39:00,34.1,33.1,29.66,ENE,63,5.0,6.0,96,0.04,,,0.57,Wunderground v.1.12,2013-02-27 22:39:00,
2013-02-27 17:45:00,34.1,33.1,29.66,NE,54,4.0,7.0,96,0.04,,,0.57,Wunderground v.1.12,2013-02-27 22:45:00,
2013-02-27 17:51:00,34.3,33.3,29.66,NE,49,5.0,7.0,96,0.04,,,0.58,Wunderground v.1.12,2013-02-27 22:51:00,
2013-02-27 17:58:00,34.3,33.3,29.66,ENE,64,5.0,8.0,96,0.04,,,0.58,Wunderground v.1.12,2013-02-27 22:58:00,
2013-02-27 18:03:00,34.3,33.3,29.66,ENE,68,5.0,9.0,96,0.05,,,0.59,Wunderground v.1.12,2013-02-27 23:03:00,
2013-02-27 18:07:00,34.3,33.3,29.66,ENE,68,5.0,16.0,96,0.04,,,0.61,Wunderground v.1.12,2013-02-27 23:07:00,
2013-02-27 18:08:00,34.4,33.4,29.66,ENE,57,5.0,6.0,96,0.05,,,0.59,Wunderground v.1.12,2013-02-27 23:08:00,
2013-02-27 18:13:00,34.4,33.4,29.66,ENE,73,5.0,8.0,96,0.07,,,0.60,Wunderground v.1.12,2013-02-27 23:13:00,
2013-02-27 18:19:00,34.6,33.6,29.66,ENE,67,5.0,6.0,96,0.06,,,0.60,Wunderground v.1.12,2013-02-27 23:19:00,
2013-02-27 18:24:00,34.6,33.6,29.66,ENE,71,4.0,4.0,96,0.05,,,0.61,Wunderground v.1.12,2013-02-27 23:24:00,
2013-02-27 18:29:00,34.6,33.6,29.66,ENE,67,5.0,6.0,96,0.05,,,0.61,Wunderground v.1.12,2013-02-27 23:29:00,
2013-02-27 18:34:00,34.7,33.7,29.66,ENE,67,5.0,5.0,96,0.06,,,0.62,Wunderground v.1.12,2013-02-27 23:34:00,
2013-02-27 18:37:00,34.6,33.6,29.66,ENE,68,5.0,11.0,96,0.05,,,0.64,Wunderground v.1.12,2013-02-27 23:37:00,
2013-02-27 18:39:00,34.7,33.7,29.66,ENE,67,5.0,5.0,96,0.06,,,0.62,Wunderground v.1.12,2013-02-27 23:39:00,
2013-02-27 18:45:00,34.7,33.7,29.64,ENE,69,5.0,7.0,96,0.05,,,0.63,Wunderground v.1.12,2013-02-27 23:45:00,
2013-02-27 18:51:00,34.9,33.9,29.64,ENE,65,5.0,11.0,96,0.05,,,0.63,Wunderground v.1.12,2013-02-27 23:51:00,
2013-02-27 18:56:00,34.9,33.9,29.64,ENE,72,6.0,6.0,96,0.06,,,0.64,Wunderground v.1.12,2013-02-27 23:56:00,
2013-02-27 19:02:00,35.2,34.2,29.63,ENE,64,5.0,6.0,96,0.06,,,0.64,Wunderground v.1.12,2013-02-28 00:02:00,
2013-02-27 19:06:00,35.0,34.0,29.63,ENE,68,5.0,14.0,96,0.06,,,0.68,Wunderground v.1.12,2013-02-28 00:06:00,
2013-02-27 19:08:00,35.2,34.2,29.63,ENE,69,6.0,14.0,96,0.04,,,0.65,Wunderground v.1.12,2013-02-28 00:08:00,
2013-02-27 19:13:00,35.3,34.3,29.63,ENE,63,6.0,7.0,96,0.04,,,0.65,Wunderground v.1.12,2013-02-28 00:13:00,
2013-02-27 19:18:00,35.3,34.3,29.63,ENE,76,6.0,7.0,96,0.08,,,0.66,Wunderground v.1.12,2013-02-28 00:18:00,
2013-02-27 19:23:00,35.3,34.3,29.63,ENE,63,5.0,7.0,96,0.07,,,0.67,Wunderground v.1.12,2013-02-28 00:23:00,
2013-02-27 19:31:00,35.2,34.2,29.61,ENE,67,5.0,5.0,96,0.09,,,0.68,Wunderground v.1.12,2013-02-28 00:31:00,
2013-02-27 19:36:00,35.3,34.3,29.61,ENE,57,4.0,6.0,96,0.09,,,0.68,Wunderground v.1.12,2013-02-28 00:36:00,
2013-02-27 19:38:00,35.2,34.2,29.61,ENE,68,5.0,14.0,96,0.07,,,0.71,Wunderground v.1.12,2013-02-28 00:38:00,
2013-02-27 19:41:00,35.3,34.3,29.61,NE,55,4.0,6.0,96,0.06,,,0.69,Wunderground v.1.12,2013-02-28 00:41:00,
2013-02-27 19:48:00,35.3,34.3,29.61,NE,51,4.0,5.0,96,0.08,,,0.70,Wunderground v.1.12,2013-02-28 00:48:00,
2013-02-27 19:53:00,35.6,34.6,29.61,ENE,67,3.0,5.0,96,0.08,,,0.70,Wunderground v.1.12,2013-02-28 00:53:00,
2013-02-27 19:59:00,35.9,34.9,29.60,ENE,61,4.0,6.0,96,0.08,,,0.71,Wunderground v.1.12,2013-02-28 00:59:00,
2013-02-27 20:05:00,36.3,35.3,29.60,ENE,59,5.0,5.0,96,0.11,,,0.72,Wunderground v.1.12,2013-02-28 01:05:00,
2013-02-27 20:08:00,36.0,35.0,29.60,ENE,68,4.0,9.0,96,0.07,,,0.75,Wunderground v.1.12,2013-02-28 01:08:00,
2013-02-27 20:11:00,36.5,35.5,29.60,ENE,59,5.0,6.0,96,0.07,,,0.73,Wunderground v.1.12,2013-02-28 01:11:00,
2013-02-27 20:16:00,36.6,35.6,29.58,ENE,71,5.0,10.0,96,0.07,,,0.73,Wunderground v.1.12,2013-02-28 01:16:00,
2013-02-27 20:21:00,36.9,35.9,29.58,NE,53,4.0,9.0,96,0.07,,,0.74,Wunderground v.1.12,2013-02-28 01:21:00,
2013-02-27 20:28:00,37.2,36.2,29.58,ENE,78,5.0,8.0,96,0.06,,,0.74,Wunderground v.1.12,2013-02-28 01:28:00,
2013-02-27 20:33:00,37.2,36.2,29.58,ENE,61,6.0,6.0,96,0.05,,,0.75,Wunderground v.1.12,2013-02-28 01:33:00,
2013-02-27 20:36:00,37.2,36.2,29.58,ENE,68,5.0,18.0,96,0.07,,,0.77,Wunderground v.1.12,2013-02-28 01:36:00,
2013-02-27 20:39:00,37.5,36.5,29.58,NE,53,6.0,7.0,96,0.08,,,0.76,Wunderground v.1.12,2013-02-28 01:39:00,
2013-02-27 20:45:00,37.5,36.5,29.56,ENE,58,6.0,6.0,96,0.08,,,0.76,Wunderground v.1.12,2013-02-28 01:45:00,
2013-02-27 20:50:00,37.6,36.6,29.56,ENE,66,5.0,5.0,96,0.05,,,0.76,Wunderground v.1.12,2013-02-28 01:50:00,
2013-02-27 20:55:00,37.6,36.6,29.56,ENE,66,5.0,5.0,96,0.04,,,0.77,Wunderground v.1.12,2013-02-28 01:55:00,
2013-02-27 21:00:00,37.6,36.6,29.55,ENE,60,5.0,5.0,96,0.04,,,0.77,Wunderground v.1.12,2013-02-28 02:00:00,
2013-02-27 21:05:00,37.8,36.8,29.55,ENE,57,6.0,7.0,96,0.04,,,0.77,Wunderground v.1.12,2013-02-28 02:05:00,
2013-02-27 21:06:00,37.8,36.8,29.55,ENE,68,6.0,12.0,96,0.06,,,0.78,Wunderground v.1.12,2013-02-28 02:06:00,
2013-02-27 21:11:00,37.8,36.8,29.55,ENE,59,6.0,7.0,96,0.00,,,0.77,Wunderground v.1.12,2013-02-28 02:11:00,
2013-02-27 21:16:00,37.8,36.8,29.55,NE,36,5.0,7.0,96,0.00,,,0.78,Wunderground v.1.12,2013-02-28 02:16:00,
2013-02-27 21:23:00,37.8,36.8,29.55,NNE,32,4.0,6.0,96,0.00,,,0.78,Wunderground v.1.12,2013-02-28 02:23:00,
2013-02-27 21:28:00,37.9,36.9,29.55,ENE,57,4.0,7.0,96,0.00,,,0.78,Wunderground v.1.12,2013-02-28 02:28:00,
2013-02-27 21:33:00,38.2,37.2,29.54,NNE,23,4.0,11.0,96,0.00,,,0.79,Wunderground v.1.12,2013-02-28 02:33:00,
2013-02-27 21:36:00,37.9,36.9,29.54,ENE,68,5.0,13.0,96,0.03,,,0.81,Wunderground v.1.12,2013-02-28 02:36:00,
2013-02-27 21:40:00,38.2,37.2,29.54,NNE,18,5.0,10.0,96,0.00,,,0.79,Wunderground v.1.12,2013-02-28 02:40:00,
2013-02-27 21:46:00,38.3,37.5,29.53,ENE,61,5.0,5.0,97,0.05,,,0.80,Wunderground v.1.12,2013-02-28 02:46:00,
2013-02-27 21:51:00,38.5,37.7,29.53,NE,53,5.0,5.0,97,0.05,,,0.80,Wunderground v.1.12,2013-02-28 02:51:00,
2013-02-27 21:57:00,38.5,37.7,29.53,ENE,64,5.0,9.0,97,0.04,,,0.80,Wunderground v.1.12,2013-02-28 02:57:00,
2013-02-27 22:03:00,38.5,37.5,29.52,ENE,60,4.0,4.0,96,0.04,,,0.81,Wunderground v.1.12,2013-02-28 03:03:00,
2013-02-27 22:07:00,38.5,37.7,29.52,ENE,68,5.0,13.0,97,0.04,,,0.83,Wunderground v.1.12,2013-02-28 03:07:00,
2013-02-27 22:08:00,38.6,37.8,29.52,ENE,57,4.0,5.0,97,0.04,,,0.81,Wunderground v.1.12,2013-02-28 03:08:00,
2013-02-27 22:14:00,38.6,37.8,29.52,ENE,63,3.0,4.0,97,0.05,,,0.82,Wunderground v.1.12,2013-02-28 03:14:00,
2013-02-27 22:20:00,38.8,38.0,29.52,NE,45,3.0,3.0,97,0.05,,,0.82,Wunderground v.1.12,2013-02-28 03:20:00,
2013-02-27 22:25:00,38.8,38.0,29.52,ENE,59,3.0,3.0,97,0.05,,,0.83,Wunderground v.1.12,2013-02-28 03:25:00,
2013-02-27 22:31:00,38.8,38.0,29.51,ENE,57,4.0,6.0,97,0.05,,,0.83,Wunderground v.1.12,2013-02-28 03:31:00,
2013-02-27 22:36:00,38.8,38.0,29.51,NE,45,3.0,13.0,97,0.05,,,0.86,Wunderground v.1.12,2013-02-28 03:36:00,
2013-02-27 22:38:00,38.8,38.0,29.51,ENE,64,3.0,5.0,97,0.06,,,0.84,Wunderground v.1.12,2013-02-28 03:38:00,
2013-02-27 22:43:00,38.8,38.0,29.51,ENE,63,3.0,7.0,97,0.06,,,0.84,Wunderground v.1.12,2013-02-28 03:43:00,
2013-02-27 22:48:00,38.8,38.0,29.50,ENE,72,2.0,3.0,97,0.05,,,0.85,Wunderground v.1.12,2013-02-28 03:48:00,
2013-02-27 22:53:00,38.8,38.0,29.50,NE,42,3.0,4.0,97,0.05,,,0.85,Wunderground v.1.12,2013-02-28 03:53:00,
2013-02-27 22:58:00,38.8,38.0,29.50,North,360,3.0,5.0,97,0.06,,,0.86,Wunderground v.1.12,2013-02-28 03:58:00,
2013-02-27 23:05:00,38.6,37.8,29.50,NE,46,2.0,2.0,97,0.06,,,0.86,Wunderground v.1.12,2013-02-28 04:05:00,
2013-02-27 23:11:00,38.6,37.8,29.50,NNE,31,2.0,4.0,97,0.05,,,0.87,Wunderground v.1.12,2013-02-28 04:11:00,
2013-02-27 23:16:00,38.6,37.8,29.48,NE,35,3.0,3.0,97,0.05,,,0.87,Wunderground v.1.12,2013-02-28 04:16:00,
2013-02-27 23:21:00,38.6,37.8,29.48,NNE,27,2.0,4.0,97,0.06,,,0.88,Wunderground v.1.12,2013-02-28 04:21:00,
2013-02-27 23:28:00,38.5,37.7,29.48,NNE,32,2.0,3.0,97,0.05,,,0.88,Wunderground v.1.12,2013-02-28 04:28:00,
2013-02-27 23:33:00,38.3,37.5,29.47,North,360,2.0,4.0,97,0.04,,,0.88,Wunderground v.1.12,2013-02-28 04:33:00,
2013-02-27 23:37:00,38.5,37.7,29.47,NNE,23,2.0,13.0,97,0.05,,,0.89,Wunderground v.1.12,2013-02-28 04:37:00,
2013-02-27 23:39:00,38.3,37.5,29.47,NW,316,3.0,3.0,97,0.00,,,0.89,Wunderground v.1.12,2013-02-28 04:39:00,
2013-02-27 23:44:00,38.3,37.5,29.47,North,355,2.0,2.0,97,0.00,,,0.89,Wunderground v.1.12,2013-02-28 04:44:00,
2013-02-27 23:49:00,38.3,37.5,29.47,North,355,2.0,2.0,97,0.00,,,0.89,Wunderground v.1.12,2013-02-28 04:49:00,
2013-02-27 23:55:00,38.2,37.4,29.47,NNW,346,3.0,8.0,97,0.00,,,0.89,Wunderground v.1.12,2013-02-28 04:55:00,